Location: Bo?a Wola
(50.4192°N, 19.7966°E)
Time: 15:28:25
(UTC+00:00)

CZ-2C R/B - Visible Passes

Search period start: 08 September 2024 00:00
Search period end: 18 September 2024 00:00
Orbit: 782 x 869 km, 98.3° (Epoch: 08 September)

Date Brightness Start Highest point End Pass type
(mag) Time Alt. Az. Time Alt. Az. Time Alt. Az.
08 Sep 4.1 01:41:40 20° WNW 01:41:40 20° WNW 01:44:12 10° NW visible
08 Sep 3.6 23:40:58 42° NE 23:40:58 42° NE 23:45:19 10° N visible
09 Sep 3.8 01:22:27 26° WNW 01:22:27 26° WNW 01:25:27 10° NNW visible
09 Sep 4.0 23:21:45 31° NE 23:21:45 31° NE 23:25:57 10° N visible
10 Sep 3.6 01:03:14 34° NW 01:03:14 34° NW 01:06:31 10° NNW visible
10 Sep 4.4 23:02:31 23° ENE 23:02:31 23° ENE 23:06:31 10° N visible
11 Sep 3.4 00:44:00 42° NW 00:44:00 42° NW 00:47:30 10° NNW visible
11 Sep 4.8 22:43:17 17° ENE 22:43:35 18° NE 22:46:55 10° NNE visible
12 Sep 3.3 00:24:46 46° NNW 00:24:46 46° NNW 00:28:23 10° NNW visible
12 Sep 4.6 02:06:15 12° WNW 02:06:15 12° WNW 02:06:57 10° NW visible
12 Sep 5.0 22:24:03 13° ENE 22:24:44 13° NE 22:27:02 10° NNE visible
13 Sep 3.5 00:05:32 45° N 00:05:32 45° N 00:09:11 10° N visible
13 Sep 4.4 01:47:02 16° WNW 01:47:02 16° WNW 01:48:37 10° NW visible
13 Sep 3.8 23:46:18 38° NNE 23:46:18 38° NNE 23:49:56 10° N visible
14 Sep 4.2 01:27:47 21° NW 01:27:47 21° NW 01:29:55 10° NW visible
14 Sep 4.1 23:27:04 31° NE 23:27:04 31° NE 23:30:36 10° N visible
15 Sep 4.0 01:08:33 26° NW 01:08:33 26° NW 01:11:02 10° NNW visible
15 Sep 4.5 23:07:50 24° NE 23:07:50 24° NE 23:11:10 10° N visible
16 Sep 3.9 00:49:19 30° NW 00:49:19 30° NW 00:52:02 10° NNW visible
16 Sep 4.8 22:48:36 19° NE 22:48:36 19° NE 22:51:37 10° NNE visible
17 Sep 3.8 00:30:05 34° NNW 00:30:05 34° NNW 00:32:56 10° NNW visible
17 Sep 5.0 22:29:21 14° NE 22:29:21 14° NE 22:31:51 10° NNE visible
